Regional Weather Roundup
Issued by NWS Binghamton, NY

Home | Current Version | Previous Version | Text Only | Print | Product List | Glossary On
Versions: 1 2 3 4 5 6 7 8 9 10 11 12 13 14 15 16 17 18 19 20 21 22 23 24 25 26 27 28 29 30 31 32 33 34 35 36 37 38 39 40 41 42 43 44 45 46 47 48 49
000
ASUS41 KBGM 051410
RWRBGM
RWRBGM
BINGHAMTON REGIONAL WEATHER ROUNDUP
NATIONAL WEATHER SERVICE BINGHAMTON NY
1000 AM EDT TUE MAY 05 2015

Note: "fair" indicates few or no clouds below 12,000 feet with no
significant weather and/or obstructions to visibility.

* = Station(s) that does not report precipitation, such as rain,
snow, etc, also no thunder or fog.

!NYZ009-015>018-022>025-036-037-044>046-055>057-062-051500
...CENTRAL NEW YORK...

CITY           SKY/WX    TMP DP  RH WIND       PRES   REMARKS
BINGHAMTON     MOSUNNY   62  50  64 CALM      30.28S
CORTLAND       FAIR      63  50  63 CALM      30.29F
DANSVILLE      MOSUNNY   63  53  70 CALM      30.28F
ELMIRA         MOSUNNY   66  55  67 VRB3      30.28S
ITHACA         MOSUNNY   64  52  65 W3        30.29F
MONTICELLO     PTSUNNY   70  45  40 NE6       30.27R
PENN YAN       PTSUNNY   61  52  72 E3        30.29F
ROME           SUNNY     63  51  65 VRB5      30.29R
SYRACUSE       CLOUDY    63  53  70 CALM      30.28S
$$

!PAZ038>040-043-044-047-048-072-051500
...NORTHEAST PENNSYLVANIA...

CITY           SKY/WX    TMP DP  RH WIND       PRES   REMARKS
HAZLETON       CLOUDY    66  55  68 NW7       30.30S
SCRANTON       CLOUDY    69  55  60 N6        30.26S
TOWANDA*       MOSUNNY   66  54  63 MISG      30.27F
$$
&&
KEY
WCI = WIND CHILL INDEX
VSB = VISIBILITY
HX  = HEAT INDEX
$$



USA.gov is the U.S. government's official web portal to all federal, state and local government web resources and services.